Weather in Marneuli

Georgia     41°28′58″N   44°48′13″E
temp.,
°C
wind,
m/s
gust,
m/s
humid.,
%
clouds,
%
prec.,
mm/h
press.,
hPa
HPBL,
m
14 april, wed
wed1401:00+9wsw1293100 2.3 101892
04:00+9wsw0292100 4.6 101791
07:00+8wsw2289100 8.8 1019143
10:00+11n2267100 8.9 1018617
13:00+15ene225292 0.0 10161132
16:00+17ese22460 0.1 10141331
19:00+15ese11604 0.1 101437
22:00+10wnw33685 0.5 101728
15 april, thu
thu1501:00+9nw22613 0.0 101816
04:00+8nnw22635 0.0 101814
07:00+7nnw22651 0.0 101915
10:00+14ene11455 0.0 1019464
13:00+18e223978 0.0 10171090
16:00+19se2234100 0.0 10151446
19:00+16s1253100 0.0 101512
22:00+14wnw3354100 0.0 101722
16 april, fri
fri1601:00+13nw2252100 0.0 101616
04:00+11nne116164 0.0 101810
07:00+9nw11695 0.0 101911
10:00+15ese21555 0.0 1019607
13:00+18ese33485 0.0 10171123
16:00+20ese32437 0.0 10161372
19:00+17wsw115817 0.1 101715
22:00+13nnw11685 0.2 101911
17 april, sat
sat1701:00+12nnw127148 0.0 101911
04:00+11nnw227262 0.0 101914
07:00+11nw2275100 0.0 102018
10:00+16ssw0158100 0.0 1019533
13:00+19ene124899 0.0 10181039
16:00+21n5542100 0.0 10171470
19:00+17nw2364100 0.1 101846
22:00+15nw1166100 0.1 102014
18 april, sun
sun1801:00+14nw1171100 0.0 101910
04:00+12wnw1177100 0.0 101911
07:00+12w017983 0.0 101911
10:00+17e2162100 0.0 1019638
13:00+20ese335590 0.0 10171287
16:00+15ene1292100 7.0 1018107
19:00+16ese1183100 0.1 101828
22:00+14wnw119099 0.1 101911